Flag for Japan Weather past 2 weeks in Sagamihara, Japan

Now
70 °F

Partly cloudy.


Feels Like: 70 °F
Forecast: 66 / 75 °F
Wind: 2 mph from Northeast

Location: Yokota Ab

Current Time: Aug 31, 2014 at 12:16:39 AM

Latest Report: Aug 30, 2014 at 11:04 PM


Visibility: 10 mi

Pressure: 30.00 "Hg

Humidity: 88%

Dew point: 66 °F

Location of SagamiharaLocation

Historic Weather in Sagamihara — Graph

°F

Sagamihara temperature yesterday

Maximum temperature yesterday: 80 °F (at 1:58 PM)
Minimum temperature yesterday: 67 °F (at 6:58 AM)
Average temperature yesterday: 72 °F

Past Weeks' High & Low Weather Summary

 TemperatureHumidityPressure
High94 °F (Aug 20, 12:58 PM)100% (Aug 17, 1:58 AM)30.08 "Hg (Aug 17, 1:58 AM)
Low65 °F (Aug 28, 3:58 AM)50% (Aug 24, 2:58 PM)29.75 "Hg (Aug 16, 12:58 AM)
Average77 °F84%29.95 "Hg
* Reported Aug 15 11:58 PM — Aug 30 11:04 PM, Sagamihara, Weather by CustomWeather, © 2014

Note: Actual official high and low records may vary slightly from our data, if they occured in-between our weather recording intervals... More about our weather records

Advertising

Sagamihara weather history for previous 24 hours

 ConditionsComfort  
Time TempWeatherWind HumidityBarometerVisibility
11:04 PM
Aug 30
70 °FPartly cloudy.2 mph88%30.00 "Hg10 mi
10:58 PM70 °FMostly cloudy.1 mph86%29.99 "Hg10 mi
9:58 PM70 °FOvercast.2 mph84%29.99 "Hg10 mi
8:58 PM71 °FOvercast.5 mph81%29.99 "Hg10 mi
7:58 PM72 °FOvercast.6 mph78%29.99 "Hg10 mi
6:58 PM73 °FPassing clouds.8 mph74%29.96 "Hg10 mi
5:58 PM75 °FPartly sunny.6 mph70%29.95 "Hg10 mi
4:58 PM76 °FSunny.7 mph70%29.93 "Hg10 mi
3:58 PM78 °FScattered clouds.12 mph68%29.93 "Hg10 mi
2:58 PM79 °FBroken clouds.6 mph59%29.94 "Hg10 mi
1:58 PM80 °FScattered clouds.7 mph58%29.94 "Hg10 mi
12:58 PM78 °FScattered clouds.8 mph63%29.96 "Hg10 mi
11:58 AM76 °FBroken clouds.10 mph68%29.96 "Hg10 mi
10:58 AM76 °FScattered clouds.8 mph70%29.98 "Hg10 mi
9:58 AM73 °FScattered clouds.8 mph79%30.00 "Hg10 mi
8:58 AM71 °FPartly sunny.7 mph90%30.03 "Hg10 mi
8:00 AM68 °FPartly sunny.8 mph100%30.03 "Hg10 mi
6:58 AM67 °FLight rain. Low clouds.8 mph99%30.03 "Hg10 mi
6:00 AM68 °FMore clouds than sun.7 mph100%30.03 "Hg10 mi
3:58 AM68 °FLight rain. Fog.3 mph100%30.01 "Hg6 mi
3:04 AM68 °FRain. Fog.8 mph100%30.01 "Hg5 mi
2:58 AM69 °FRain. Fog.7 mph100%30.00 "Hg6 mi
2:02 AM68 °FLight rain. Fog.9 mph100%30.01 "Hg6 mi
1:00 AM70 °FRain. Fog.7 mph100%30.01 "Hg3 mi
12:58 AM70 °FRain. Fog.5 mph100%30.00 "Hg3 mi
12:03 AM70 °FLight rain. Fog.7 mph100%30.02 "Hg5 mi
Weather by CustomWeather, © 2014

See weather overviewHow to use our weather pages